Location: Fours
(44.3167°N, 6.7000°E)
Time: 13:06:11
(UTC+00:00)

USA 215 - Pass Details

Date: 30 November 2020
Orbit: 1098 x 1110 km, 123.0° (Epoch: 22 January)

Event Time Altitude Azimuth Distance (km) Brightness Sun altitude
Exits shadow 17:43:49 28° 65° (ENE) 1,931 4.0 -18.8°
Maximum altitude 17:47:22 62° 135° (SE) 1,238 3.3 -19.4°
Drops below altitude 10° 17:53:51 10° 216° (SW) 2,966 6.1 -20.6°
Sets 17:56:22 0° 219° (SW) 3,921 6.9 -21.0°
